TimeEDT,TemperatureF,Dew PointF,Humidity,Sea Level PressureIn,VisibilityMPH,Wind Direction,Wind SpeedMPH,Gust SpeedMPH,PrecipitationIn,Events,Conditions,WindDirDegrees,DateUTC
12:56 AM,75.9,70.0,82,29.84,10.0,Calm,Calm,-,N/A,,Mostly Cloudy,0,2013-07-21 04:56:00
1:56 AM,73.9,71.1,91,29.84,9.0,Calm,Calm,-,0.00,,Mostly Cloudy,0,2013-07-21 05:56:00
2:56 AM,75.0,70.0,84,29.84,10.0,Calm,Calm,-,N/A,,Mostly Cloudy,0,2013-07-21 06:56:00
3:56 AM,75.9,66.9,74,29.84,10.0,NNE,3.5,-,N/A,,Mostly Cloudy,20,2013-07-21 07:56:00
4:56 AM,73.9,66.0,76,29.85,10.0,Calm,Calm,-,N/A,,Partly Cloudy,0,2013-07-21 08:56:00
5:56 AM,73.9,64.0,71,29.88,10.0,NE,3.5,-,N/A,,Mostly Cloudy,40,2013-07-21 09:56:00
6:56 AM,73.0,61.0,66,29.89,10.0,NNE,4.6,-,N/A,,Mostly Cloudy,20,2013-07-21 10:56:00
7:56 AM,73.9,61.0,64,29.91,10.0,Variable,4.6,-,N/A,,Scattered Clouds,0,2013-07-21 11:56:00
8:56 AM,75.9,63.0,64,29.92,10.0,North,3.5,-,N/A,,Mostly Cloudy,350,2013-07-21 12:56:00
9:56 AM,77.0,62.1,60,29.92,10.0,East,4.6,-,N/A,,Mostly Cloudy,90,2013-07-21 13:56:00
10:56 AM,79.0,61.0,54,29.93,10.0,East,6.9,-,N/A,,Mostly Cloudy,80,2013-07-21 14:56:00
11:56 AM,81.0,61.0,50,29.94,10.0,East,3.5,-,N/A,,Mostly Cloudy,100,2013-07-21 15:56:00
12:56 PM,82.0,66.0,58,29.94,10.0,SSE,10.4,-,N/A,,Mostly Cloudy,150,2013-07-21 16:56:00
1:56 PM,81.0,64.0,56,29.94,10.0,SSE,6.9,-,N/A,,Partly Cloudy,160,2013-07-21 17:56:00
2:56 PM,80.1,63.0,56,29.94,10.0,Variable,6.9,-,N/A,,Partly Cloudy,0,2013-07-21 18:56:00
3:56 PM,82.9,59.0,44,29.93,10.0,ESE,5.8,-,N/A,,Partly Cloudy,110,2013-07-21 19:56:00
4:56 PM,82.9,57.9,42,29.92,10.0,East,5.8,-,N/A,,Partly Cloudy,100,2013-07-21 20:56:00
5:56 PM,82.0,57.9,44,29.91,10.0,ESE,8.1,-,N/A,,Partly Cloudy,120,2013-07-21 21:56:00
6:56 PM,80.1,57.0,45,29.91,10.0,East,5.8,-,N/A,,Clear,100,2013-07-21 22:56:00
7:56 PM,78.1,59.0,52,29.92,10.0,ESE,3.5,-,N/A,,Clear,110,2013-07-21 23:56:00
8:56 PM,73.0,62.1,68,29.94,10.0,Calm,Calm,-,N/A,,Clear,0,2013-07-22 00:56:00
9:56 PM,72.0,63.0,73,29.96,10.0,Calm,Calm,-,N/A,,Partly Cloudy,0,2013-07-22 01:56:00
10:56 PM,73.9,64.9,73,29.95,10.0,SE,3.5,-,N/A,,Scattered Clouds,130,2013-07-22 02:56:00
11:56 PM,72.0,66.0,81,29.96,10.0,Calm,Calm,-,N/A,,Clear,0,2013-07-22 03:56:00